This demonstration page uses our WeatherBlox Daily Observations layout. Learn more.

Left ArrowRight Arrow

36.19886, -115.1175

Hourly Observations for March 28, 2017

Temp ( °F °C ) Dew Point ( °F °C ) Humidity (%) Winds ( mph kmh ) Pressure ( in mb ) Visibility ( mi km ) Precip ( " mm )
12:53 am 00:53 Clear 57 13.9 24 -4.4 28 28 NNW 21 33 30.00 1016 10 16 N/A
1:53 am 01:53 Clear 57 13.9 24 -4.4 28 28 NNW 21 33 30.01 1016 10 16 N/A
2:53 am 02:53 Clear 55 12.8 23 -5 29 29 NNW 18 30 30.01 1016 10 16 N/A
3:53 am 03:53 Clear 55 12.8 23 -5 29 29 NNW 20 31 30.01 1016 10 16 N/A
4:53 am 04:53 Clear 54 12.2 23 -5 30 30 NNW 25 41 30.02 1017 10 16 N/A
5:53 am 05:53 Clear 54 12.2 23 -5 30 30 NNW 21 33 30.04 1017 10 16 N/A
6:53 am 06:53 Sunny 54 12.2 22 -5.6 29 29 NNW 21 33 30.04 1017 10 16 N/A
7:53 am 07:53 Sunny 56 13.3 22 -5.6 27 27 NNW 24 39 30.07 1018 10 16 N/A
8:53 am 08:53 Sunny 57 13.9 22 -5.6 26 26 NNW 26 43 30.08 1019 10 16 N/A
9:53 am 09:53 Sunny 59 15 21 -6.1 23 23 NNW 30 48 30.10 1019 10 16 N/A
10:53 am 10:53 Sunny 62 16.7 20 -6.7 20 20 NNW 24 39 30.10 1019 10 16 N/A
11:53 am 11:53 Sunny 65 18.3 19 -7.2 17 17 NNW 25 41 30.09 1019 10 16 N/A
12:53 pm 12:53 Sunny 68 20 17 -8.3 14 14 N 21 33 30.05 1018 10 16 N/A
1:53 pm 13:53 Sunny 70 21.1 15 -9.4 12 12 NNW 18 30 30.03 1017 10 16 N/A
2:53 pm 14:53 Sunny 71 21.7 14 -10 11 11 NNW 15 24 30.01 1016 10 16 N/A
3:53 pm 15:53 Sunny 72 22.2 12 -11.1 10 10 NNW 18 30 30.00 1016 10 16 N/A
4:53 pm 16:53 Sunny 71 21.7 10 -12.2 9 9 NNW 16 26 30.00 1016 10 16 N/A
5:53 pm 17:53 Sunny 71 21.7 13 -10.6 10 10 NNW 13 20 30.01 1016 10 16 N/A
6:53 pm 18:53 Sunny 69 20.6 16 -8.9 13 13 NE 7 11 30.03 1017 10 16 N/A
7:53 pm 19:53 Clear 68 20 15 -9.4 13 13 NE 6 9 30.04 1017 10 16 N/A
8:53 pm 20:53 Clear 64 17.8 25 -3.9 23 23 ENE 12 19 30.08 1019 10 16 N/A
9:53 pm 21:53 Clear 63 17.2 26 -3.3 25 25 N N/A 30.11 1020 10 16 N/A
10:53 pm 22:53 Clear 60 15.6 26 -3.3 27 27 E 13 20 30.12 1020 10 16 N/A
11:53 pm 23:53 Clear 59 15 26 -3.3 28 28 N N/A 30.13 1020 10 16 N/A

Powered by AerisWeather